• In Hungary
  • List of Countries
  • For 7 days
  • Water Temperature
  • Satellite Maps
  • Weather Map
  • News
  • Weather Widgets
  • user-avatar
    Login

    Hourly Weather Mishulki

    Today, 21 October, Sunday

    Time Temperature Precipitation Wind Pressure Humidity
    00:00 +5°C° 0 mm 1 mps 755 mmHg 81%
    01:00 +5°C° 0 mm 1 mps 756 mmHg 82%
    02:00 +4°C° 0 mm 1 mps 756 mmHg 84%
    03:00 +3°C° 0 mm 0 mps 756 mmHg 85%
    04:00 +3°C° 0 mm 0 mps 756 mmHg 86%
    05:00 +3°C° 0 mm 0 mps 756 mmHg 87%
    06:00 +3°C° 0 mm 0 mps 756 mmHg 86%
    07:00 +3°C° 0 mm 0 mps 757 mmHg 85%
    08:00 +4°C° 0 mm 0 mps 757 mmHg 83%
    09:00 +5°C° 0 mm 0 mps 757 mmHg 76%
    10:00 +7°C° 0 mm 0 mps 757 mmHg 69%
    11:00 +9°C° 0 mm 0 mps 758 mmHg 62%
    12:00 +9°C° 0 mm 0 mps 758 mmHg 59%
    13:00 +10°C° 0 mm 0 mps 758 mmHg 56%
    14:00 +10°C° 0 mm 0 mps 758 mmHg 53%
    15:00 +9°C° 0 mm 0 mps 758 mmHg 58%
    16:00 +8°C° 0 mm 0 mps 758 mmHg 63%
    17:00 +6°C° 0 mm 0 mps 757 mmHg 69%
    18:00 +6°C° 0 mm 0 mps 758 mmHg 71%
    19:00 +5°C° 0 mm 0 mps 758 mmHg 73%
    20:00 +5°C° 0 mm 0 mps 758 mmHg 76%
    21:00 +5°C° 0 mm 1 mps 758 mmHg 77%
    22:00 +5°C° 0 mm 1 mps 758 mmHg 79%
    23:00 +5°C° 0 mm 1 mps 758 mmHg 81%

    Tomorrow, 22 October, Monday

    Time Temperature Precipitation Wind Pressure Humidity
    00:00 +4°C° 0 mm 2 mps 757 mmHg 82%
    01:00 +3°C° 0 mm 2 mps 757 mmHg 84%
    02:00 +3°C° 0 mm 2 mps 757 mmHg 85%
    03:00 +3°C° 0 mm 2 mps 757 mmHg 86%
    04:00 +3°C° 0 mm 2 mps 757 mmHg 88%
    05:00 +3°C° 0 mm 2 mps 756 mmHg 89%
    06:00 +3°C° 0 mm 2 mps 756 mmHg 88%
    07:00 +2°C° 0 mm 3 mps 756 mmHg 87%
    08:00 +3°C° 0 mm 3 mps 756 mmHg 86%
    09:00 +4°C° 0 mm 3 mps 755 mmHg 81%
    10:00 +6°C° 0 mm 4 mps 755 mmHg 75%
    11:00 +8°C° 0 mm 4 mps 755 mmHg 69%
    12:00 +10°C° 0 mm 4 mps 754 mmHg 67%
    13:00 +10°C° 0 mm 4 mps 753 mmHg 65%
    14:00 +10°C° 0 mm 5 mps 753 mmHg 63%
    15:00 +10°C° 0 mm 4 mps 752 mmHg 68%
    16:00 +8°C° 0 mm 4 mps 752 mmHg 73%
    17:00 +7°C° 0 mm 4 mps 751 mmHg 79%
    18:00 +7°C° 0.1 mm 4 mps 751 mmHg 81%
    19:00 +6°C° 0.1 mm 4 mps 750 mmHg 84%
    20:00 +6°C° 0.1 mm 4 mps 750 mmHg 86%
    21:00 +6°C° 0.6 mm 4 mps 750 mmHg 88%
    22:00 +6°C° 0.6 mm 4 mps 749 mmHg 89%
    23:00 +6°C° 0.6 mm 4 mps 749 mmHg 91%

    Day after tomorrow, 23 October, Tuesday

    Time Temperature Precipitation Wind Pressure Humidity
    00:00 +6°C° 0.7 mm 4 mps 749 mmHg 90%
    01:00 +6°C° 0.7 mm 4 mps 749 mmHg 90%
    02:00 +6°C° 0.7 mm 4 mps 748 mmHg 89%
    03:00 +5°C° 0 mm 3 mps 748 mmHg 90%
    04:00 +4°C° 0 mm 3 mps 748 mmHg 91%
    05:00 +3°C° 0 mm 3 mps 748 mmHg 92%
    06:00 +3°C° 0 mm 3 mps 748 mmHg 91%
    07:00 +4°C° 0 mm 2 mps 747 mmHg 91%
    08:00 +3°C° 0 mm 2 mps 747 mmHg 90%
    09:00 +3°C° 0 mm 3 mps 747 mmHg 82%
    10:00 +5°C° 0 mm 3 mps 746 mmHg 74%
    11:00 +7°C° 0 mm 3 mps 746 mmHg 65%
    12:00 +6°C° 0 mm 4 mps 745 mmHg 63%
    13:00 +7°C° 0 mm 4 mps 744 mmHg 61%
    14:00 +7°C° 0 mm 4 mps 743 mmHg 59%
    15:00 +6°C° 0 mm 4 mps 742 mmHg 63%
    16:00 +5°C° 0 mm 5 mps 740 mmHg 67%
    17:00 +5°C° 0 mm 5 mps 739 mmHg 71%
    18:00 +4°C° 0.1 mm 6 mps 738 mmHg 73%
    19:00 +4°C° 0.1 mm 6 mps 736 mmHg 74%
    20:00 +3°C° 0.1 mm 7 mps 735 mmHg 76%
    21:00 +4°C° 0.5 mm 7 mps 733 mmHg 77%
    22:00 +4°C° 0.5 mm 7 mps 732 mmHg 78%
    23:00 +4°C° 0.5 mm 7 mps 731 mmHg 80%

    24 October, Wednesday

    Time Temperature Precipitation Wind Pressure Humidity
    00:00 +4°C° 1.1 mm 7 mps 729 mmHg 81%
    01:00 +3°C° 1.1 mm 6 mps 728 mmHg 83%
    02:00 +3°C° 1.1 mm 6 mps 727 mmHg 85%
    03:00 +3°C° 1.6 mm 5 mps 726 mmHg 87%
    04:00 +3°C° 1.6 mm 5 mps 726 mmHg 88%
    05:00 +4°C° 1.6 mm 4 mps 725 mmHg 90%
    06:00 +3°C° 0.7 mm 5 mps 725 mmHg 88%
    07:00 +3°C° 0.7 mm 5 mps 725 mmHg 85%
    08:00 +3°C° 0.7 mm 5 mps 725 mmHg 83%
    09:00 +3°C° 0 mm 6 mps 725 mmHg 80%
    10:00 +3°C° 0 mm 6 mps 726 mmHg 77%
    11:00 +3°C° 0 mm 6 mps 726 mmHg 75%
    12:00 +4°C° 0 mm 6 mps 726 mmHg 73%
    13:00 +5°C° 0 mm 5 mps 726 mmHg 72%
    14:00 +5°C° 0 mm 5 mps 726 mmHg 71%
    15:00 +5°C° 0 mm 4 mps 726 mmHg 75%
    16:00 +4°C° 0 mm 3 mps 726 mmHg 78%
    17:00 +5°C° 0 mm 2 mps 726 mmHg 82%
    18:00 +5°C° 0.1 mm 2 mps 726 mmHg 85%
    19:00 +5°C° 0.1 mm 2 mps 726 mmHg 87%
    20:00 +4°C° 0.1 mm 2 mps 726 mmHg 90%
    21:00 +4°C° 0.4 mm 2 mps 727 mmHg 90%
    22:00 +3°C° 0.4 mm 3 mps 727 mmHg 90%
    23:00 +4°C° 0.4 mm 4 mps 727 mmHg 90%

    25 October, Thursday

    Time Temperature Precipitation Wind Pressure Humidity
    00:00 +3°C° 0.7 mm 5 mps 728 mmHg 88%
    01:00 +3°C° 0.7 mm 6 mps 728 mmHg 86%
    02:00 +4°C° 0.7 mm 7 mps 729 mmHg 84%
    03:00 +3°C° 0.2 mm 7 mps 729 mmHg 83%
    04:00 +3°C° 0.2 mm 7 mps 730 mmHg 81%
    05:00 +3°C° 0.2 mm 7 mps 730 mmHg 80%
    06:00 +3°C° 0.1 mm 7 mps 731 mmHg 79%
    07:00 +2°C° 0.1 mm 7 mps 731 mmHg 78%
    08:00 +2°C° 0.1 mm 7 mps 732 mmHg 77%
    09:00 +2°C° 0 mm 7 mps 732 mmHg 75%
    10:00 +3°C° 0 mm 7 mps 733 mmHg 73%
    11:00 +3°C° 0 mm 7 mps 733 mmHg 71%
    12:00 +3°C° 0 mm 7 mps 733 mmHg 71%
    13:00 +3°C° 0 mm 6 mps 733 mmHg 71%
    14:00 +4°C° 0 mm 6 mps 733 mmHg 70%
    15:00 +3°C° 0.1 mm 5 mps 734 mmHg 72%
    16:00 +3°C° 0.1 mm 5 mps 734 mmHg 74%
    17:00 +4°C° 0.1 mm 4 mps 734 mmHg 76%
    18:00 +4°C° 0.1 mm 3 mps 734 mmHg 78%
    19:00 +3°C° 0.1 mm 3 mps 733 mmHg 80%
    20:00 +3°C° 0.1 mm 3 mps 733 mmHg 81%
    21:00 +4°C° 0.1 mm 2 mps 733 mmHg 84%
    22:00 +3°C° 0.1 mm 2 mps 733 mmHg 86%
    23:00 +3°C° 0.1 mm 2 mps 732 mmHg 88%

    26 October, Friday

    Time Temperature Precipitation Wind Pressure Humidity
    00:00 +4°C° 0.2 mm 1 mps 732 mmHg 89%
    01:00 +4°C° 0.2 mm 1 mps 732 mmHg 89%
    02:00 +4°C° 0.2 mm 1 mps 732 mmHg 89%
    03:00 +4°C° 0.2 mm 1 mps 732 mmHg 90%
    04:00 +3°C° 0.2 mm 1 mps 733 mmHg 90%
    05:00 +3°C° 0.2 mm 1 mps 733 mmHg 91%
    06:00 +3°C° 0 mm 1 mps 733 mmHg 91%
    07:00 +2°C° 0 mm 2 mps 734 mmHg 91%
    08:00 +2°C° 0 mm 2 mps 734 mmHg 91%
    09:00 +3°C° 0 mm 2 mps 734 mmHg 87%
    10:00 +4°C° 0 mm 2 mps 735 mmHg 82%
    11:00 +4°C° 0 mm 3 mps 735 mmHg 78%
    12:00 +4°C° 0.1 mm 3 mps 736 mmHg 78%
    13:00 +4°C° 0.1 mm 3 mps 736 mmHg 79%
    14:00 +5°C° 0.1 mm 4 mps 736 mmHg 80%
    15:00 +4°C° 0.1 mm 4 mps 736 mmHg 81%
    16:00 +4°C° 0.1 mm 4 mps 737 mmHg 83%
    17:00 +3°C° 0.1 mm 4 mps 737 mmHg 85%
    18:00 +3°C° 0 mm 3 mps 737 mmHg 87%
    19:00 +2°C° 0 mm 3 mps 738 mmHg 89%
    20:00 +1°C° 0 mm 3 mps 738 mmHg 92%
    21:00 +2°C° 0 mm 2 mps 738 mmHg 93%
    22:00 +2°C° 0 mm 2 mps 739 mmHg 93%
    23:00 +1°C° 0 mm 2 mps 739 mmHg 94%
    Show more